N698CS KMLI-KPIA

Flight info

Callsign N698CS
Flight time 0h 39m
Altitude 3500
Route DCT
Aircraft C172/L-SFG/C

Departure

Time 2026-04-22 01:20
Airport Quad City International Airport (KMLI)

Arrival

Time 2026-04-22 01:59
Airport General Wayne A. Downing Peoria International Airport (KPIA)
Time Latitude Longitude Altitude Speed Heading
2026-04-22 01:07 41.44296 -90.50751 578 ft 0 kts 352°
2026-04-22 01:09 41.44296 -90.50752 578 ft 0 kts 352°
2026-04-22 01:09 41.44296 -90.50751 578 ft 0 kts 352°
2026-04-22 01:09 41.44296 -90.50752 578 ft 0 kts 352°
2026-04-22 01:09 41.44308 -90.50753 578 ft 3 kts
2026-04-22 01:10 41.44347 -90.50719 578 ft 9 kts 21°
2026-04-22 01:10 41.44389 -90.50665 578 ft 10 kts 87°
2026-04-22 01:10 41.44392 -90.50557 578 ft 12 kts 92°
2026-04-22 01:10 41.44386 -90.50429 578 ft 14 kts 95°
2026-04-22 01:11 41.44437 -90.50354 578 ft 15 kts 353°
2026-04-22 01:11 41.44546 -90.50358 578 ft 16 kts
2026-04-22 01:11 41.44655 -90.50365 578 ft 14 kts 327°
2026-04-22 01:11 41.44674 -90.50485 578 ft 13 kts 276°
2026-04-22 01:12 41.44700 -90.50563 579 ft 0 kts 311°
2026-04-22 01:12 41.44700 -90.50564 579 ft 0 kts 308°
2026-04-22 01:18 41.44714 -90.50574 579 ft 5 kts
2026-04-22 01:18 41.44774 -90.50591 580 ft 11 kts 316°
2026-04-22 01:18 41.44775 -90.50669 581 ft 11 kts 226°
2026-04-22 01:18 41.44617 -90.50902 580 ft 55 kts 230°
2026-04-22 01:19 41.44324 -90.51330 685 ft 66 kts 230°
2026-04-22 01:19 41.44006 -90.51785 838 ft 67 kts 228°
2026-04-22 01:19 41.43675 -90.52203 1009 ft 65 kts 225°
2026-04-22 01:19 41.43273 -90.52465 1151 ft 73 kts 183°
2026-04-22 01:20 41.42826 -90.52051 1296 ft 86 kts 129°
2026-04-22 01:20 41.42507 -90.51382 1459 ft 87 kts 124°
2026-04-22 01:20 41.42248 -90.50646 1599 ft 91 kts 117°
2026-04-22 01:20 41.42254 -90.49809 1679 ft 99 kts 44°
2026-04-22 01:21 41.42839 -90.49366 1672 ft 101 kts 16°
2026-04-22 01:21 41.43444 -90.48921 1604 ft 90 kts 20°
2026-04-22 01:21 41.43962 -90.48592 1501 ft 79 kts 12°
2026-04-22 01:21 41.44431 -90.48567 1345 ft 63 kts 307°
2026-04-22 01:22 41.44677 -90.49002 1196 ft 58 kts 289°
2026-04-22 01:22 41.44805 -90.49515 1031 ft 59 kts 278°
2026-04-22 01:22 41.44876 -90.50063 863 ft 59 kts 270°
2026-04-22 01:22 41.44796 -90.50577 706 ft 55 kts 237°
2026-04-22 01:23 41.44559 -90.50949 580 ft 34 kts 228°
2026-04-22 01:23 41.44536 -90.50984 581 ft 0 kts 227°
2026-04-22 01:23 41.44466 -90.51096 581 ft 38 kts 232°
2026-04-22 01:23 41.44210 -90.51466 647 ft 61 kts 229°
2026-04-22 01:24 41.43915 -90.51909 794 ft 65 kts 233°
2026-04-22 01:24 41.43563 -90.52293 937 ft 70 kts 203°
2026-04-22 01:24 41.43059 -90.52134 1072 ft 82 kts 153°
2026-04-22 01:24 41.42717 -90.51505 1234 ft 87 kts 116°
2026-04-22 01:25 41.42496 -90.50758 1379 ft 88 kts 114°
2026-04-22 01:25 41.42261 -90.49946 1478 ft 96 kts 114°
2026-04-22 01:25 41.42016 -90.49102 1600 ft 100 kts 114°
2026-04-22 01:25 41.41721 -90.48257 1734 ft 99 kts 126°
2026-04-22 01:26 41.41322 -90.47499 1863 ft 99 kts 138°
2026-04-22 01:26 41.40866 -90.46827 2019 ft 96 kts 143°
2026-04-22 01:26 41.40382 -90.46204 2172 ft 96 kts 147°
2026-04-22 01:26 41.39882 -90.45610 2314 ft 95 kts 148°
2026-04-22 01:27 41.39378 -90.45042 2447 ft 96 kts 149°
2026-04-22 01:27 41.38860 -90.44476 2579 ft 96 kts 150°
2026-04-22 01:27 41.38332 -90.43908 2710 ft 97 kts 150°
2026-04-22 01:27 41.37802 -90.43343 2842 ft 98 kts 149°
2026-04-22 01:28 41.37270 -90.42780 2981 ft 98 kts 149°
2026-04-22 01:28 41.36729 -90.42211 3118 ft 99 kts 148°
2026-04-22 01:28 41.36182 -90.41633 3261 ft 100 kts 148°
2026-04-22 01:28 41.35632 -90.41056 3400 ft 100 kts 148°
2026-04-22 01:29 41.35072 -90.40466 3496 ft 104 kts 148°
2026-04-22 01:29 41.34463 -90.39838 3516 ft 116 kts 148°
2026-04-22 01:29 41.33805 -90.39156 3511 ft 122 kts 148°
2026-04-22 01:29 41.33126 -90.38445 3508 ft 124 kts 148°
2026-04-22 01:30 41.32445 -90.37734 3507 ft 123 kts 148°
2026-04-22 01:30 41.31777 -90.37032 3512 ft 123 kts 149°
2026-04-22 01:30 41.31094 -90.36316 3517 ft 123 kts 149°
2026-04-22 01:30 41.30413 -90.35604 3514 ft 124 kts 149°
2026-04-22 01:31 41.29730 -90.34889 3509 ft 123 kts 149°
2026-04-22 01:31 41.29058 -90.34184 3504 ft 122 kts 148°
2026-04-22 01:31 41.28386 -90.33479 3507 ft 121 kts 148°
2026-04-22 01:31 41.27722 -90.32782 3504 ft 121 kts 149°
2026-04-22 01:32 41.27057 -90.32085 3507 ft 120 kts 149°
2026-04-22 01:32 41.26401 -90.31396 3514 ft 120 kts 149°
2026-04-22 01:32 41.25743 -90.30708 3510 ft 121 kts 149°
2026-04-22 01:32 41.25074 -90.30009 3507 ft 121 kts 149°
2026-04-22 01:33 41.24411 -90.29316 3504 ft 121 kts 149°
2026-04-22 01:33 41.23750 -90.28625 3503 ft 121 kts 149°
2026-04-22 01:33 41.23087 -90.27930 3501 ft 121 kts 149°
2026-04-22 01:33 41.22428 -90.27240 3501 ft 120 kts 150°
2026-04-22 01:34 41.21762 -90.26542 3505 ft 119 kts 150°
2026-04-22 01:34 41.21104 -90.25857 3503 ft 120 kts 149°
2026-04-22 01:34 41.20446 -90.25169 3501 ft 120 kts 150°
2026-04-22 01:34 41.19781 -90.24477 3501 ft 120 kts 149°
2026-04-22 01:35 41.19119 -90.23785 3503 ft 120 kts 149°
2026-04-22 01:35 41.18465 -90.23102 3505 ft 120 kts 149°
2026-04-22 01:35 41.17805 -90.22413 3505 ft 120 kts 149°
2026-04-22 01:35 41.17141 -90.21721 3506 ft 120 kts 150°
2026-04-22 01:36 41.16484 -90.21036 3510 ft 120 kts 149°
2026-04-22 01:36 41.15818 -90.20340 3509 ft 120 kts 150°
2026-04-22 01:36 41.15163 -90.19655 3512 ft 120 kts 150°
2026-04-22 01:36 41.14500 -90.18966 3514 ft 120 kts 150°
2026-04-22 01:37 41.13842 -90.18279 3513 ft 120 kts 150°
2026-04-22 01:37 41.13177 -90.17587 3512 ft 120 kts 150°
2026-04-22 01:37 41.12523 -90.16907 3513 ft 120 kts 150°
2026-04-22 01:37 41.11857 -90.16213 3512 ft 120 kts 151°
2026-04-22 01:38 41.11196 -90.15525 3511 ft 120 kts 151°
2026-04-22 01:38 41.10534 -90.14836 3512 ft 120 kts 151°
2026-04-22 01:38 41.09866 -90.14142 3516 ft 120 kts 150°
2026-04-22 01:38 41.09209 -90.13460 3512 ft 120 kts 150°
2026-04-22 01:39 41.08541 -90.12766 3511 ft 121 kts 150°
2026-04-22 01:39 41.07874 -90.12071 3514 ft 121 kts 150°
2026-04-22 01:39 41.07204 -90.11372 3513 ft 121 kts 152°
2026-04-22 01:39 41.06538 -90.10683 3514 ft 121 kts 151°
2026-04-22 01:40 41.05876 -90.09999 3516 ft 121 kts 151°
2026-04-22 01:40 41.05202 -90.09299 3515 ft 121 kts 151°
2026-04-22 01:40 41.04538 -90.08612 3511 ft 121 kts 150°
2026-04-22 01:40 41.03881 -90.07929 3514 ft 120 kts 150°
2026-04-22 01:41 41.03220 -90.07242 3512 ft 120 kts 150°
2026-04-22 01:41 41.02558 -90.06553 3511 ft 120 kts 150°
2026-04-22 01:41 41.01890 -90.05859 3514 ft 120 kts 151°
2026-04-22 01:41 41.01228 -90.05171 3515 ft 120 kts 151°
2026-04-22 01:42 41.00567 -90.04487 3518 ft 121 kts 151°
2026-04-22 01:42 40.99900 -90.03796 3513 ft 121 kts 152°
2026-04-22 01:42 40.99229 -90.03101 3519 ft 121 kts 151°
2026-04-22 01:42 40.98562 -90.02408 3518 ft 122 kts 151°
2026-04-22 01:43 40.97887 -90.01709 3522 ft 122 kts 152°
2026-04-22 01:43 40.97216 -90.01018 3493 ft 124 kts 152°
2026-04-22 01:43 40.96522 -90.00300 3491 ft 124 kts 151°
2026-04-22 01:43 40.95847 -89.99601 3484 ft 122 kts 152°
2026-04-22 01:44 40.95181 -89.98911 3490 ft 121 kts 152°
2026-04-22 01:44 40.94519 -89.98227 3490 ft 121 kts 151°
2026-04-22 01:44 40.93855 -89.97541 3493 ft 121 kts 151°
2026-04-22 01:44 40.93185 -89.96850 3491 ft 121 kts 151°
2026-04-22 01:45 40.92524 -89.96165 3492 ft 121 kts 151°
2026-04-22 01:45 40.91862 -89.95481 3491 ft 120 kts 150°
2026-04-22 01:45 40.91199 -89.94797 3494 ft 120 kts 151°
2026-04-22 01:45 40.90538 -89.94113 3495 ft 120 kts 151°
2026-04-22 01:46 40.89877 -89.93430 3496 ft 120 kts 152°
2026-04-22 01:46 40.89216 -89.92749 3495 ft 120 kts 152°
2026-04-22 01:46 40.88552 -89.92065 3494 ft 120 kts 152°
2026-04-22 01:46 40.87892 -89.91384 3489 ft 120 kts 152°
2026-04-22 01:47 40.87231 -89.90704 3494 ft 120 kts 152°
2026-04-22 01:47 40.86569 -89.90018 3493 ft 120 kts 152°
2026-04-22 01:47 40.85886 -89.89322 3371 ft 127 kts 153°
2026-04-22 01:47 40.85180 -89.88603 3129 ft 129 kts 153°
2026-04-22 01:48 40.84466 -89.87871 2882 ft 128 kts 153°
2026-04-22 01:48 40.83773 -89.87157 2640 ft 126 kts 153°
2026-04-22 01:48 40.83080 -89.86446 2397 ft 125 kts 153°
2026-04-22 01:48 40.82399 -89.85747 2155 ft 124 kts 153°
2026-04-22 01:49 40.81718 -89.85045 1913 ft 122 kts 153°
2026-04-22 01:49 40.81059 -89.84363 1724 ft 117 kts 154°
2026-04-22 01:49 40.80446 -89.83723 1699 ft 106 kts 155°
2026-04-22 01:49 40.79866 -89.83120 1689 ft 104 kts 154°
2026-04-22 01:50 40.79292 -89.82531 1694 ft 105 kts 154°
2026-04-22 01:50 40.78708 -89.81930 1699 ft 107 kts 153°
2026-04-22 01:50 40.78114 -89.81322 1698 ft 108 kts 153°
2026-04-22 01:50 40.77504 -89.80698 1690 ft 110 kts 153°
2026-04-22 01:51 40.76901 -89.80075 1699 ft 110 kts 153°
2026-04-22 01:51 40.76288 -89.79446 1690 ft 111 kts 154°
2026-04-22 01:51 40.75678 -89.78818 1684 ft 110 kts 154°
2026-04-22 01:51 40.75076 -89.78200 1696 ft 109 kts 154°
2026-04-22 01:52 40.74473 -89.77583 1684 ft 109 kts 154°
2026-04-22 01:52 40.73871 -89.76966 1695 ft 110 kts 153°
2026-04-22 01:52 40.73257 -89.76337 1689 ft 110 kts 154°
2026-04-22 01:52 40.72646 -89.75710 1700 ft 111 kts 154°
2026-04-22 01:53 40.72023 -89.75074 1700 ft 113 kts 153°
2026-04-22 01:53 40.71401 -89.74438 1701 ft 113 kts 154°
2026-04-22 01:53 40.70776 -89.73799 1694 ft 113 kts 153°
2026-04-22 01:53 40.70154 -89.73160 1703 ft 113 kts 153°
2026-04-22 01:54 40.69532 -89.72523 1703 ft 113 kts 154°
2026-04-22 01:54 40.68901 -89.71877 1695 ft 113 kts 154°
2026-04-22 01:54 40.68280 -89.71240 1697 ft 113 kts 153°
2026-04-22 01:54 40.67652 -89.70600 1694 ft 114 kts 153°
2026-04-22 01:55 40.67032 -89.69965 1685 ft 114 kts 154°
2026-04-22 01:55 40.66407 -89.69324 1693 ft 114 kts 154°
2026-04-22 01:55 40.65769 -89.68674 1689 ft 114 kts 153°
2026-04-22 01:55 40.65158 -89.68012 1705 ft 114 kts 149°
2026-04-22 01:56 40.64717 -89.67100 1648 ft 128 kts 105°
2026-04-22 01:56 40.64809 -89.65936 1663 ft 126 kts 69°
2026-04-22 01:56 40.65199 -89.64938 1645 ft 123 kts 57°
2026-04-22 01:56 40.65637 -89.63992 1653 ft 119 kts 47°
2026-04-22 01:57 40.66282 -89.63477 1662 ft 104 kts 356°
2026-04-22 01:57 40.66918 -89.63596 1681 ft 82 kts 315°
2026-04-22 01:57 40.67312 -89.64063 1626 ft 80 kts 299°
2026-04-22 01:57 40.67823 -89.64512 1541 ft 89 kts 315°
2026-04-22 01:58 40.68285 -89.65022 1452 ft 79 kts 291°
2026-04-22 01:58 40.68312 -89.65684 1352 ft 66 kts 261°
2026-04-22 01:58 40.68213 -89.66252 1202 ft 66 kts 246°
2026-04-22 01:58 40.67961 -89.66697 1075 ft 58 kts 227°
2026-04-22 01:59 40.67669 -89.67067 901 ft 59 kts 224°
2026-04-22 01:59 40.67341 -89.67429 766 ft 63 kts 221°
2026-04-22 01:59 40.66993 -89.67793 659 ft 63 kts 219°
2026-04-22 01:59 40.66689 -89.68109 650 ft 44 kts 221°
2026-04-22 02:00 40.66493 -89.68310 648 ft 27 kts 226°
2026-04-22 02:00 40.66420 -89.68443 647 ft 10 kts 285°
2026-04-22 02:00 40.66452 -89.68502 647 ft 5 kts 302°
2026-04-22 02:00 40.66462 -89.68522 647 ft 0 kts 297°